Location: Unspecified
(0.0000°N, 0.0000°E)
Time: 03:58:25
(UTC+00:00)

ISS - Pass Details

Date: 17 June 2019
Orbit: 407 x 418 km, 51.6° (Epoch: 27 June)

Event Time Altitude Azimuth Distance (km) Brightness Sun altitude
Rises 18:40:30 0° 305° (NW) 2,337 2.0 -9.1°
Reaches altitude 10° 18:42:49 10° 291° (WNW) 1,480 0.7 -9.6°
Maximum altitude 18:45:36 24° 234° (SW) 893 -1.7 -10.2°
Drops below altitude 10° 18:48:23 10° 177° (S) 1,490 -1.2 -10.9°
Enters shadow 18:49:36 - 168° (SSE) 1,925 -0.7 -11.1°
